Погода в Белоусово

Россия / Калужская область     55°05′22″N   36°39′28″E
темп.,
°C
ветер,
м/с
пор.,
м/с
влажн.,
%
обл.,
%
осадки,
мм/ч
давл.,
гПа
погр.,
м
16 мая, вс
вс1600:00+12ююз310963 0.2 1010325
03:00+10ююз289813 0.2 1011191
06:00+11ююз28964 0.0 1012238
09:00+16ююз36775 0.0 1013632
12:00+19ююз46645 0.5 10131396
15:00+21юз475224 1.6 10131892
18:00+20юз25683 0.2 1013377
21:00+14ю118893 0.2 101411
17 мая, пн
пн1700:00+12вюв1192100 0.0 101411
03:00+12вюв1194100 0.0 101510
06:00+13в259079 0.0 1015120
09:00+19вюв3772100 0.3 1015466
12:00+24вюв575591 0.3 10131030
15:00+25вюв58555 0.3 10111332
18:00+24вюв586878 0.0 1010947
21:00+19вюв4148359 0.0 1010559
18 мая, вт
вт1800:00+17юв314855 0.0 1009464
03:00+15вюв312895 0.0 1008296
06:00+15вюв3128295 0.0 1008342
09:00+20юв5106171 0.0 1007541
12:00+24юв61153100 0.0 10071097
15:00+25юв5134941 0.0 10061673
18:00+23юв5106297 0.1 10061367
21:00+16ююв3119477 1.1 1006228
19 мая, ср
ср1900:00+14ююв289317 0.1 1006181
03:00+13юв249656 0.1 100672
06:00+15вюв2694100 0.0 1006198
09:00+17вюв298899 0.0 1006484
12:00+21ююв3116289 0.0 10051348
15:00+20юв4975100 0.9 1004914
18:00+18юв4990100 2.0 1003685
21:00+15юв31095100 4.3 1003333
20 мая, чт
чт2000:00+14ю489679 0.2 1003491
03:00+11ююв3109840 0.2 1004370
06:00+11ююв4895100 0.0 1003536
09:00+11ююв3895100 0.3 1004563
12:00+14ю588396 0.8 10031163
15:00+10ююз61190100 1.4 10051075
18:00+15зюз47675 0.3 10141190
21:00+10юз249075 0.3 101663